Find Starlink 31107

NORAD ID: 58684 Int'l Des: 2023-211 Owner: SPXS Country: US Constellation: starlink operational
LEOCIRCULAR

当前视图

正在加载3D地球...

About Starlink 31107

Starlink 31107 (NORAD 58684) is a starlink constellation satellite (v2 mini) launched Dec 29, 2023 by SPXS of US. It operates in LEO, CIRCULAR orbit with a mass of 730.00 kg.

关于 Starlink 31107

正在加载描述...

即将过境

Passes for default location (London). Set your location on the main map for personalized predictions.

高度历史

Loading altitude history...

两行轨道根数

1 58684U 23211T 26177.51617529 .00000411 00000-0 24451-4 0 9995
2 58684 43.0001 191.0724 0001377 275.9196 84.1499 15.27577551139106
Epoch: Jun 26, 2026 • Age: 19 hours

当前状态

高度 483.0 km
速度 7.63 km/s
星下点 19.37°N, 49.14°W
发射日期 Dec 29, 2023
运行时间 2.4 years
类型 internet

技术详情

分类 Payload
质量 730.00 kg
干质量 700.00 kg
总质量 730.00 kg
长度 0.30 m
直径 4.10 m
跨度 29.00 m
形状 Box + pan
制造商 SPXS
平台类型 Starlink V2M
阶段状态 In Orbit
所有者/国家 SPXS/US

Most Searched